Regional Weather Roundup
Issued by NWS

Home | Current Version | Previous Version | Text Only | Print | Product List | Glossary On
Versions: 1 2 3 4 5 6 7 8 9 10 11 12 13 14 15 16 17 18 19 20 21 22 23 24 25 26 27 28 29 30 31 32 33 34 35 36 37 38 39 40 41 42 43 44 45 46 47 48 49 50
404
ASHW40 PHFO 252332
RWRHI

WEATHER ROUNDUP FOR HAWAII
NATIONAL WEATHER SERVICE HONOLULU HI
100 PM HST SAT MAR 25 2017

THIS IS AN AUTOMATED REPORT THAT HAS NOT BEEN QUALITY CONTROLLED.

NOTE..."FAIR" INDICATES FEW OR NO CLOUDS BELOW 12,000 FEET WITH NO
SIGNIFICANT WEATHER AND/OR OBSTRUCTIONS TO VISIBILITY.

* - THESE SITES REPORT LIMITED FIELDS

HIZ001>004-260000-
KAUAI-NIIHAU-

CITY           SKY/WX    TMP DP  RH WIND       PRES   REMARKS
LIHUE APT      MOSUNNY   80  67  64 NE15      30.22F
PORT ALLEN*      N/A     82 N/A N/A E25G33      N/A
POIPU*           N/A     81 N/A N/A NE12G20     N/A
PRINCEVILLE*     N/A     79 N/A N/A E12G21      N/A
KOKOLE POINT*  NOT AVBL
MOLOAA DAIRY*    N/A     81  66  61 E9G17       N/A
WAIMEA HTS*    NOT AVBL
PUU OPAE*      NOT AVBL
PUU LUA*       NOT AVBL
MAKAHA RIDGE*    N/A     73  66  78 NW2         N/A
$$

HIZ005>011-260000-
OAHU-

CITY           SKY/WX    TMP DP  RH WIND       PRES   REMARKS
HONOLULU       MOSUNNY   85  61  44 NE20G28   30.18F
KALAELOA       MOSUNNY   87  64  46 E10G21    30.18F
KANEOHE MCB    NOT AVBL
WHEELER FIELD  FAIR      80  64  58 E13G22    30.19
BELLOWS*         N/A    N/A N/A N/A NE17        N/A
KAHUKU*          N/A    N/A N/A N/A NE14G22     N/A
WHEELER*       NOT AVBL
WAIANAE HARBOR NOT AVBL
DILLINGHAM*      N/A     86  64  48 W9G20       N/A
KAHUKU TRN*      N/A     81  68  65 W12G28      N/A
KAWAILOA*        N/A     77  64  65 E12G26      N/A
KII*             N/A     79  68  69 E18         N/A
MAKUA RANGE*     N/A     84  68  58 E7          N/A
OAHU FOREST NW NOT AVBL
SCHOFIELD BRK*   N/A     79  64  61 MISG        N/A
SCHOFIELD S*   NOT AVBL
WAIANAE VLY*   NOT AVBL
KUAOKALA*      NOT AVBL
HONOULIUULI*   NOT AVBL
MOKUOLOE IS*   NOT AVBL
PALEHUA*       NOT AVBL
WAIAWA PHB*    NOT AVBL
$$

HIZ012>013-260000-
MOLOKAI-

CITY           SKY/WX    TMP DP  RH WIND       PRES   REMARKS
MOLOKAI AIRPT  SUNNY     84  66  54 NE13G23   30.18F
KALAUPAPA      NOT AVBL
MAKAPULAPAI*     N/A     82  68  61 E20G31      N/A
MOLOKAI 1*     NOT AVBL
PUU ALII*        N/A     71  63  75 NW1G7       N/A
$$

HIZ016-260000-
KAHOOLAWE-

CITY           SKY/WX    TMP DP  RH WIND       PRES   REMARKS
KAHOOLAWE*     NOT AVBL
HAKIOAWA*        N/A     79  64  59 MISG      30.57F
HONOKANAIA*      N/A     82  66  59 NE22G38   30.11F
KANELOA*         N/A     77  66  69 E25G39    30.23F
KEALIALALO*    NOT AVBL
LUA MAKIKA*    NOT AVBL
$$

HIZ014>015-260000-
LANAI-

CITY           SKY/WX    TMP DP  RH WIND       PRES   REMARKS
LANAI CITY     FAIR      79  64  61 NE23      30.19F
LANAI 1*       NOT AVBL
$$

HIZ017>028-260000-
MAUI-

CITY           SKY/WX    TMP DP  RH WIND       PRES   REMARKS
KAHULUI        MOSUNNY   85  64  49 NE21G32   30.14F
KAPALUA-W MAUI MOSUNNY   82  63  51 NE13G25   30.18
HANA AIRPORT   SUNNY     81  66  61 SE2       30.22F
HANA*            N/A     81 N/A N/A E9G15       N/A
HALEAKALA SUMM   N/A     50  19  29 E39G56      N/A
MAALAEA BAY*     N/A     82 N/A N/A N24G35      N/A
HALEAKALA*     NOT AVBL
KAUPO GAP*     NOT AVBL
KULA 1*          N/A     71  37  29 NE9G26      N/A
$$

HIZ023>026-260000-
BIG ISLAND OF HAWAII COAST AND LOWER SLOPES-

CITY           SKY/WX    TMP DP  RH WIND       PRES   REMARKS
KAILUA KONA    PTSUNNY   83  65  54 SW10      30.11F
HILO           MOSUNNY   82  64  54 E13       30.19F
HONOKAA*         N/A     73 N/A N/A VRB1        N/A
KAWAIHAE MWT*    N/A     82 N/A N/A W10         N/A
KAWAIHAE*        N/A     79 N/A N/A W14       30.10F
SOUTH POINT*     N/A     79 N/A N/A VRB26G37    N/A
UPOLU AIRPORT* NOT AVBL
KAMUELA*       PTCLDY    73  61  64 NE25      30.21F
HAKALAU*         N/A     70  34  26 SE7G16      N/A
KALOKO-HONOKO*   N/A     86  68  54 SW9       30.11F
PALI 2*          N/A     82  45  26 SW14G21     N/A
KEALAKOMO*       N/A     84  66  54 E20G28      N/A
KAUPULEHU*     NOT AVBL
KAPAPALA*        N/A     80  64  56 E7G21       N/A
LOWER KAHUKU*    N/A    N/A N/A N/A NE5G18      N/A
PUHE CS*         N/A     84  64  51 W9G20       N/A
PUHO CS*         N/A     85  66  53 W3G9        N/A
PTA KEAMUKU*     N/A     72  61  68 CALM        N/A
WAIKOLOA*      NOT AVBL
$$

HIZ027>028-260000-
BIG ISLAND OF HAWAII INTERIOR AND SUMMMITS-

CITY           SKY/WX    TMP DP  RH WIND       PRES   REMARKS
BRADSHAW FIELD SUNNY     75  21  13 SE23G32   30.42F
MK VISITOR CEN   N/A     55  27  33 SE17        N/A
MAUNA KEA*       N/A     39   7  26 E24         N/A  WCI  28
MAUNA LOA*       N/A     54   9  16 MISG        N/A
MAUNA LOA 1*   NOT AVBL
PTA KIPUKA*      N/A    N/A N/A N/A E16G32      N/A
PTA RANGE 17*    N/A    N/A N/A N/A E22G33      N/A
PTA WEST*        N/A    N/A N/A N/A NW15G21     N/A
NENE CABIN*      N/A     63  41  45 E13G26      N/A
AHUMOA*        NOT AVBL
PTA PORTABLE*  NOT AVBL
PUU MALI*        N/A    N/A N/A N/A E18G36      N/A
$$

HIC003-260000-
NORTHWEST ISLANDS-

CITY           SKY/WX    TMP DP  RH WIND       PRES   REMARKS
MIDWAY ISLAND  SUNNY     72  64  78 S7        30.17F
MIDWAY NOS*      N/A     73 N/A N/A MISG      30.16F
FRENCH FRIGATE NOT AVBL
$$

PHZ110>124-180-260000-
BUOY REPORTS

STATION/POSITION TIME  TEMP    WIND        PRES    WAVE   SWELL
                       AIR SEA DIR/SP/G            HT/PER HT/DIR
                 (UTC) (F)     (DEG/KT/KT) (MB)    (FT/S) (FT/D)
BUOY 51001       2310   76 77   80/  8/ 12 1023.3
BUOY 51101       2250   76 76   80/  8/ 10 1024.1F  10/17  10/290
BUOY 51100       NOT AVBL
BUOY 51002       2310   78 78   70/ 19/ 25 1018.8
BUOY 51003       2250   77 79   50/ 12/ 14 1020.7F   9/21   8/250
BUOY 51004       2250      77   60/ 19/ 21 1020.1F   9/ 9   7/100
BARBERS PT BUOY  NOT AVBL
WAIMEA BAY BUOY  2302      76                N/A     6/20   5/300
KAILUA BAY BUOY  2304      76                N/A     6/12   3/360
LANAI BUOY       2315      79                N/A     4/ 7   2/260
BARBERS PT 2     NOT AVBL
PAUWELA MAUI     2309      77                N/A     6/11   3/340
HILO             2312      79                N/A     6/ 9   3
KANEOHE BAY BUOY 2255      76                N/A     4/11   2/350
HANALEI KAUAI    2252      78                N/A     7/20   7/300
KAHULUI HARBOR   2300   77 78   40/ 16/ 24 1021.1
HONOLULU HARBOR  2300   81 78   60/  7/ 10 1022.4
KILO NALU        NOT AVBL
HILO HARBOR      2300   87 76  100/  8/ 10 1021.9
MOKUOLOE         2236   78 79   80/ 11/ 15 1022.9F
NAWILIWILI       2300   77      50/ 12/ 15 1022.7
WHOTS BUOY       NOT AVBL
BUOY 51028       NOT AVBL
$$

......................KEY........................................
  SKY/WX - SKY CONDITIONS/PRESENT WEATHER
  TMP    - TEMPERATURE IN FAHRENHEIT
  DWPT   - DEWPOINT IN FAHRENHEIT
  RH     - RELATIVE HUMIDITY IN PERCENT
  WIND   - DIRECTION AND SPEED /MPH FOR ISLANDS...KTS FOR BUOYS/
  PRES   - MEAN SEA LEVEL PRESSURE IN INCHES OF HG
  VSB    - VISIBILITY IN MILES
  HX     - HEAT INDEX
  WCI    - WIND CHILL INDEX
  VRB    - VARIABLE WIND DIRECTION
  N/A    - NOT AVAILABLE




USA.gov is the U.S. government's official web portal to all federal, state and local government web resources and services.